Regional Weather Roundup
Issued by NWS

Home | Current Version | Previous Version | Graphics & Text | Print | Product List | Glossary On
Versions: 1 2 3 4 5 6 7 8 9 10 11 12 13 14 15 16 17 18 19 20 21 22 23 24 25 26 27 28 29 30 31 32 33 34 35 36 37 38 39 40 41 42 43 44 45 46 47 48 49 50
000
ASUS43 KLOT 162104
RWRIL

ILLINOIS REGIONAL WEATHER ROUNDUP
NATIONAL WEATHER SERVICE CHICAGO/ROMEOVILLE IL
400 PM CDT MON OCT 16 2017

NOTE: "FAIR" INDICATES FEW OR NO CLOUDS BELOW 12,000 FEET WITH NO
SIGNIFICANT WEATHER AND/OR OBSTRUCTIONS TO VISIBILITY.

* THESE STATIONS ARE NOT UNDER NWS QUALITY CONTROL. THEY ALSO MAY NOT
  REPORT WEATHER SUCH AS PRECIPITATION OR FOG.

ILZ001-002-007-009-015-016-024-162200-
NORTHWEST ILLINOIS

CITY           SKY/WX    TMP DP  RH WIND       PRES   REMARKS
MOLINE         SUNNY     65  38  36 W9        30.24F
STERLING*      SUNNY     64  36  35 W7          N/A
SAVANNA*       SUNNY     64  34  33 W9        30.22F
$$

ILZ003-004-008-010-011-017-018-162200-
NORTH CENTRAL ILLINOIS

CITY           SKY/WX    TMP DP  RH WIND       PRES   REMARKS
ROCKFORD       SUNNY     62  33  33 SW10      30.24F
FREEPORT*      SUNNY     61  34  36 W7        30.24F
ROCHELLE*      SUNNY     61  34  36 W9        30.24F
$$

ILZ005-006-012>014-019>023-162200-
NORTHEAST ILLINOIS

CITY           SKY/WX    TMP DP  RH WIND       PRES   REMARKS
CHICAGO-OHARE  MOSUNNY   62  34  35 W13       30.22F
CHICAGO-MIDWAY MOSUNNY   63  38  39 W15       30.24F
AURORA         SUNNY     62  35  36 W10       30.24F
LANSING*       SUNNY     62  40  44 W13       30.25S
JOLIET*        SUNNY     64  35  34 W7        30.25S
WAUKEGAN       SUNNY     62  37  39 SW9       30.21F
DUPAGE AIRPORT SUNNY     62  36  37 W14       30.23F
KANKAKEE*      SUNNY     64  35  34 W14G21    30.27S
WHEELING       SUNNY     63  35  35 W8        30.23F
NORTHERLY ISL    N/A     62  33  33 SW9         N/A
$$

LMZ740>746-162200-
SOUTHERN LAKE MICHIGAN

STATION/POSITION SKY/WX   TEMP    WIND        PRES    VSBY  WAVE
                          AIR SEA DIR/SP/G                  HT/PER
                          (F)     (DEG/KT/KT) (MB)    (MI)  (FT/S)
SOUTHERN BUOY              55 62  230/ 10/ 14 1024.6          2/ 3
WILMETTE HARBOR            60 58  260/ 10/ 12   N/A           1/ 6
HARRISON CRIB              62     250/ 14/ 17   N/A
BURNHAM HARBOR             62     260/  8/ 12   N/A
CALUMET HARBOR             62     290/  8/ 14 1023.3F
BURNS HARBOR               60     270/  7/  9 1024.7F
MICHIGAN CITY              59     260/  4/  4   N/A
MICHIGAN CITY 6N           58 58  270/  2/  4   N/A           2/ 6
ST. JOSEPH                 56 55  220/  4/  8 1025.1F         2/ 4
$$

ILZ025>027-034>036-040-047-049-050-058-095>099-162200-
WEST-CENTRAL ILLINOIS

CITY           SKY/WX    TMP DP  RH WIND       PRES   REMARKS
QUINCY         SUNNY     66  33  29 NW7       30.27F
GALESBURG*     SUNNY     64  37  37 W9        30.26F
MACOMB*        SUNNY     65  36  33 W13       30.28F
JACKSONVILLE*  SUNNY     66  35  32 W7        30.29F
$$

ILZ028>032-037-038-041>044-048-051>054-059>061-162200-
CENTRAL ILLINOIS

CITY           SKY/WX    TMP DP  RH WIND       PRES   REMARKS
BLOOMINGTON    SUNNY     64  36  35 W13       30.28F
DECATUR        SUNNY     65  36  34 W7        30.29F
PEORIA         SUNNY     65  34  31 W5        30.26F
LACON*         SUNNY     65  35  32 W6        30.25F
LINCOLN*       SUNNY     65  37  35 W5        30.27F
SPRINGFIELD    SUNNY     67  35  30 W7G17     30.28F
TAYLORVILLE    SUNNY     66  35  31 W10       30.29F
$$

ILZ033-039-045-046-055>057-062-063-162200-
EAST-CENTRAL ILLINOIS

CITY           SKY/WX    TMP DP  RH WIND       PRES   REMARKS
CHAMPAIGN      SUNNY     65  35  33 SW12G17   30.29F
DANVILLE*      MOSUNNY   62  36  37 W9        30.26F
MATTOON        SUNNY     63  38  39 SW7       30.29F
PARIS*         MOSUNNY   63  37  38 W6        30.31S
$$

ILZ079-100>102-162200-
SOUTHWEST ILLINOIS

CITY           SKY/WX    TMP DP  RH WIND       PRES   REMARKS
ALTON          SUNNY     64  41  42 W6        30.32F
BELLEVILLE     SUNNY     66  36  33 W6        30.30F
CAHOKIA*       SUNNY     68  35  29 VRB6      30.31F
SPARTA*        SUNNY     64  36  35 CALM      30.33F
$$

ILZ064>066-069>071-074>076-080>082-084>086-088>090-092>094-162200-
SOUTH-CENTRAL ILLINOIS

CITY           SKY/WX    TMP DP  RH WIND       PRES   REMARKS
CARBONDALE     SUNNY     65  36  34 VRB3      30.32F
MARION         SUNNY     64  34  32 N9        30.33F
MT. VERNON     SUNNY     64  36  35 VRB5      30.32F
CENTRALIA*     SUNNY     65  37  35 N8        30.31F
METROPOLIS*    SUNNY     65  34  31 N12       30.31F
$$

ILZ067-068-072-073-078-083-087-091-162200-
SOUTHEAST ILLINOIS

CITY           SKY/WX    TMP DP  RH WIND       PRES   REMARKS
LAWRENCEVILLE  SUNNY    N/A N/A N/A NW6       30.32S
FLORA*         SUNNY     64  37  36 N5        30.32F
FAIRFIELD*     SUNNY     63  34  34 CALM      30.31F
HARRISBURG*    SUNNY     64  35  34 N5        30.33S
ROBINSON*      SUNNY     63  35  35 CALM      30.32F
CARMI*         SUNNY     64  35  34 N5        30.31F
$$

ABBREVIATIONS USED IN REMARKS
   TC - TEMPERATURE IN CELSIUS
  WCI - WIND CHILL INDEX
   HX - HEAT INDEX
  VSB - VISIBILITY
$$




USA.gov is the U.S. government's official web portal to all federal, state and local government web resources and services.